TimeEST,TemperatureF,Dew PointF,Humidity,Sea Level PressureIn,VisibilityMPH,Wind Direction,Wind SpeedMPH,Gust SpeedMPH,PrecipitationIn,Events,Conditions,WindDirDegrees,DateUTC
12:53 AM,5.0,-0.9,76,30.37,10.0,NE,8.1,-,N/A,,Overcast,40,2014-01-02 05:53:00
1:53 AM,5.0,-2.0,73,30.35,10.0,NE,9.2,-,N/A,,Overcast,50,2014-01-02 06:53:00
2:53 AM,3.9,-2.0,76,30.35,10.0,NE,8.1,-,N/A,,Overcast,50,2014-01-02 07:53:00
3:51 AM,3.2,-2.2,78,30.25,10.0,NE,8.1,-,N/A,,Overcast,50,2014-01-02 08:51:00
3:53 AM,3.9,-2.0,76,30.33,10.0,NE,8.1,-,N/A,,Overcast,50,2014-01-02 08:53:00
4:53 AM,3.9,-2.0,76,30.31,10.0,NE,8.1,-,N/A,,Overcast,50,2014-01-02 09:53:00
5:53 AM,3.9,-0.9,80,30.32,10.0,ENE,10.4,-,N/A,,Overcast,60,2014-01-02 10:53:00
6:53 AM,3.9,-0.9,80,30.32,10.0,ENE,10.4,-,N/A,,Overcast,60,2014-01-02 11:53:00
7:53 AM,3.9,-2.0,76,30.31,10.0,NE,9.2,-,N/A,,Overcast,50,2014-01-02 12:53:00
8:53 AM,3.9,-2.0,76,30.31,10.0,ENE,10.4,-,N/A,,Overcast,60,2014-01-02 13:53:00
9:53 AM,3.9,-2.0,76,30.32,10.0,NE,12.7,-,N/A,,Overcast,50,2014-01-02 14:53:00
10:53 AM,5.0,-2.0,73,30.34,10.0,NE,10.4,-,N/A,,Overcast,50,2014-01-02 15:53:00
11:53 AM,5.0,-4.0,66,30.32,10.0,NE,9.2,-,N/A,,Overcast,50,2014-01-02 16:53:00
12:53 PM,7.0,-4.0,61,30.30,10.0,North,10.4,-,N/A,,Overcast,10,2014-01-02 17:53:00
1:53 PM,7.0,-4.0,61,30.27,10.0,NNE,9.2,-,N/A,,Overcast,30,2014-01-02 18:53:00
2:53 PM,8.1,-4.0,58,30.27,10.0,North,11.5,-,N/A,,Clear,10,2014-01-02 19:53:00
3:53 PM,7.0,-4.0,61,30.28,10.0,NNE,9.2,-,N/A,,Scattered Clouds,30,2014-01-02 20:53:00
4:53 PM,6.1,-5.1,60,30.29,10.0,North,9.2,-,N/A,,Mostly Cloudy,10,2014-01-02 21:53:00
5:16 PM,5.0,-5.1,63,30.21,10.0,NE,10.4,-,N/A,,Mostly Cloudy,40,2014-01-02 22:16:00
5:32 PM,3.9,-6.0,64,30.22,10.0,NNE,5.8,-,N/A,,Scattered Clouds,20,2014-01-02 22:32:00
5:53 PM,3.0,-6.0,66,30.32,10.0,NNE,5.8,-,N/A,,Clear,20,2014-01-02 22:53:00
6:53 PM,1.9,-6.0,69,30.34,10.0,North,8.1,-,N/A,,Partly Cloudy,10,2014-01-02 23:53:00
7:53 PM,-0.0,-6.0,76,30.36,10.0,North,4.6,-,N/A,,Clear,10,2014-01-03 00:53:00
8:53 PM,-4.0,-8.0,83,30.36,10.0,Calm,Calm,-,N/A,,Clear,0,2014-01-03 01:53:00
9:53 PM,-5.1,-9.0,83,30.36,10.0,NW,3.5,-,N/A,,Clear,310,2014-01-03 02:53:00
10:53 PM,-6.0,-9.9,83,30.36,10.0,NW,5.8,-,N/A,,Clear,310,2014-01-03 03:53:00
11:53 PM,-8.0,-14.1,75,30.37,10.0,North,4.6,-,N/A,,Clear,360,2014-01-03 04:53:00